Terminal Aerodrome Forecast
Issued by NWS

Home | Current Version | Previous Version | Text Only | Print | Product List | Glossary On
Versions: 1 2 3 4 5 6 7 8 9 10 11 12
000
FTUS44 KSJT 040500
TAFSOA
TAF
KSOA 040520Z 0406/0506 14008KT P6SM SCT015
     FM040630 15010KT P6SM OVC012
     FM041700 16013G20KT P6SM SCT050=

USA.gov is the U.S. government's official web portal to all federal, state and local government web resources and services.